Regional Weather Roundup
Issued by NWS

Home | Current Version | Previous Version | Text Only | Print | Product List | Glossary Off
Versions: 1 2 3 4 5 6 7 8 9 10 11 12 13 14 15 16 17 18 19 20 21 22 23 24 25 26 27 28 29 30 31 32 33 34 35 36 37 38 39 40 41 42 43 44 45 46 47 48 49 50

000
ASUS43 KFSD 231410
RWRSD

WEATHER ROUNDUP FOR SOUTH DAKOTA
NATIONAL WEATHER SERVICE SIOUX FALLS SD
900 AM CDT FRI JUN 23 2017

NOTE: "FAIR" INDICATES FEW OR NO CLOUDS BELOW 12,000 FEET WITH NO
SIGNIFICANT WEATHER AND/OR OBSTRUCTIONS TO VISIBILITY.


SDZ001>005-009-010-012>017-231500-
NORTHWEST AND NORTH CENTRAL SOUTH DAKOTA

CITY           SKY/WX    TMP DP  RH WIND       PRES   REMARKS
BUFFALO          N/A     54  40  59 NW25G33   30.13R
FAITH            N/A     54  41  61 NW25G35   30.15R
MOBRIDGE       CLOUDY    59  43  55 NW24G31   30.04R
$$

SDZ012>016-024>037-041>051-057-063-072>074-231500-
SOUTHWEST AND SOUTH CENTRAL SOUTH DAKOTA

CITY           SKY/WX    TMP DP  RH WIND       PRES   REMARKS
RAPID CTY ARPT MOSUNNY   55  38  52 NW21G30   30.21R
PIERRE         CLOUDY    57  46  66 N14       30.10R
CUSTER         SUNNY     49  32  52 NW8       30.23R
ELLSWORTH AFB  CLOUDY    55  41  58 NW22      30.20
PHILIP         CLOUDY    58  45  62 NW22G30   30.15R
PINE RIDGE     SUNNY     59  44  57 NW7       30.20S
SPEARFISH      FAIR      52  37  58 W20G26    30.22S
WINNER         PTSUNNY   61  46  57 NW26G35   30.11S
$$

SDZ004>011-016>023-039-040-231500-
NORTHEAST SOUTH DAKOTA

CITY           SKY/WX    TMP DP  RH WIND       PRES   REMARKS
ABERDEEN       CLOUDY    59  49  69 NW15      29.98R
WATERTOWN      CLOUDY    58  52  80 NW18G30   29.93F
BROOKINGS      PTSUNNY   60  51  72 NW23G31   29.94R
SISSETON         N/A     62  51  67 NW24      29.89R
$$

SDZ017-020-022-023-036>040-048>070-231500-
SOUTHEAST SOUTH DAKOTA

CITY           SKY/WX    TMP DP  RH WIND       PRES   REMARKS
SIOUX FALLS    PTSUNNY   62  52  69 NW23G29   29.96S
HURON          CLOUDY    61  50  67 NW28G37   29.99F
CHAMBERLAIN    CLOUDY    61  49  65 W16G28    30.08R
MITCHELL       CLOUDY    62  50  64 NW21      30.01F
YANKTON        CLOUDY    61  49  64 NW28G35   30.00S
$$

ABBREVIATIONS USED IN REMARKS
   TC - TEMPERATURE IN CELSIUS
  WCI - WIND CHILL INDEX
   HX - HEAT INDEX
  VSB - VISIBILITY





USA.gov is the U.S. government's official web portal to all federal, state and local government web resources and services.